Nur fliegen ist schöner ....

Willkommen beim Flugservice Bautzen GmbH

Wir sind eine nach europäischen Richtlinien zugelassene Flugschule und lizenziertes Luftfahrtunternehmen. Bei uns können sie nicht nur Rundflüge über die Oberlausitz oder Sachsen buchen, sondern in unserer Flugschule selber das Fliegen erlernen. Erfahrene Fluglehrer stehen ihnen dabei zur Seite.

Wir bieten außerdem Businessflüghe sowie Transportleistungen auf dem Luftweg, ganz nach ihren Wünschen, an. Schauen sie sich in Ruhe bei uns um und wenn sie Fragen haben oder weitere Informationen benötigen, scheuen sie sich nicht Kontakt mit uns aufzunehmen.

Rundflüge können sie ganz leicht auch online in unserem Shop buchen.

Terminkalender

Letzter Monat November 2017 Nächster Monat
Mo Di Mi Do Fr Sa So
week 44 1 2 3 4 5
week 45 6 7 8 9 10 11 12
week 46 13 14 15 16 17 18 19
week 47 20 21 22 23 24 25 26
week 48 27 28 29 30

Flugwetterinfo

[Quelle: ADDS]
METAR
EDDC 241050Z 19012KT 9999 FEW029 BKN070 13/07 Q1010 NOSIG =
TAF
EDDC 240500Z 2406/2506 17012KT 9999 FEW045 BECMG 2409/2411 19015G25KT BECMG 2415/2417 20008KT TEMPO 2416/2506 4500 DZRA BKN012 PROB30 TEMPO 2420/2506 BKN007 TEMPO 2423/2506 VRB03KT =
SR / SS: 06:34 / 15:03 UTC (EDAB Flugplatz Bautzen 2017-11-24)

Webcam EDAB

Webcam EDAB
Flugservice Bautzen GmbH, Kornmarkt 34, 02625 Bautzen  Telefon: +49 (3591) 211105, Telefax: +49 (3591) 274512, E-Mail:  flugservice(at)fsbautzen.de